Weather Roundup
Issued by NWS Chicago, IL

Home | Current Version | Previous Version | Text Only | Print | Product List | Glossary Off
Versions: 1 2 3 4 5 6 7 8 9 10 11 12 13 14 15 16 17 18 19 20 21 22 23 24 25 26 27 28 29 30 31 32 33 34 35 36 37 38 39 40 41 42 43 44 45 46 47 48 49 50

000
NZUS59 KLOT 200704
HRRLOT

CHICAGO AREA WEATHER ROUNDUP
NATIONAL WEATHER SERVICE CHICAGO/ROMEOVILLE IL
100 AM CST SAT JAN 20 2018

NOTE: "FAIR" INDICATES FEW OR NO CLOUDS BELOW 12,000 FEET WITH NO
SIGNIFICANT WEATHER AND/OR OBSTRUCTIONS TO VISIBILITY.

* THESE STATIONS ARE NOT UNDER NWS QUALITY CONTROL. THEY ALSO MAY NOT
  REPORT WEATHER SUCH AS PRECIPITATION OR FOG.

ILZ005-006-012>014-019>023-200800-
NORTHEAST ILLINOIS

CITY           SKY/WX    TMP DP  RH WIND       PRES   REMARKS
OHARE            N/A     38  27  64 SW14      29.78R
MIDWAY         CLOUDY    38  28  67 SW15      29.80R
AURORA           N/A     34  28  79 S8        29.81R WCI  27
LANSING*         N/A     35  29  81 SW13      29.83S WCI  26
JOLIET*          N/A     37  29  73 SW7       29.83S
WAUKEGAN         N/A     40  28  62 SW8       29.75R
DUPAGE AIRPORT   N/A     35  28  75 SW14      29.79R WCI  26
WHEELING         N/A     39  28  64 SW9       29.79R
KANKAKEE*        N/A    N/A N/A N/A SW14      29.87S
MORRIS*          N/A     35  29  79 SW10      29.83S WCI  27
NORTHERLY ISL    N/A     39  27  62 SW7         N/A
$$

WIZ051-052-058>065-066-070>072-200800-
SOUTHEAST WISCONSIN

CITY           SKY/WX    TMP DP  RH WIND       PRES   REMARKS
MILWAUKEE        N/A     41  29  62 W14G24    29.71S
KENOSHA*         N/A     40  28  62 SW16G25   29.74R
RACINE*          N/A     40  28  62 SW13G20   29.74R
BURLINGTON       N/A     39  28  63 SW15G21   29.73S
$$

INZ001>003-010>013-019-020-200800-
NORTHWEST INDIANA

CITY           SKY/WX    TMP DP  RH WIND       PRES   REMARKS
GARY*            N/A     38  27  64 SW12G21   29.82S
MICHIGAN CITY* NOT AVBL
RENSSELAER*    NOT AVBL
VALPARAISO       N/A     35  27  72 SW16      29.84S WCI  25
$$

LMZ740>746-200800-
SOUTHERN LAKE MICHIGAN

STATION/POSITION TIME  SKY/WX   TEMP WIND        PRES    VSBY
                                AIR  DIR/SP/G
                 (UTC)          (F)  (DEG/KT/KT) (MB)    (MI)
HARRISON CRIB    0640            42  230/ 21/ 26   N/A
BURNHAM HARBOR   0700            39  250/ 10/ 15   N/A
CALUMET HARBOR   0630            38  210/ 14/ 21 1008.5R
BURNS HARBOR     0640            38  210/ 21/ 31 1009.8F
MICHIGAN CITY    0640            39  190/ 20/ 23   N/A
$$

ABBREVIATIONS USED IN REMARKS
   TC - TEMPERATURE IN CELSIUS
  WCI - WIND CHILL INDEX
   HX - HEAT INDEX
  VSB - VISIBILITY
$$




USA.gov is the U.S. government's official web portal to all federal, state and local government web resources and services.